Location: Br�ckrachdorf
(50.5420°N, 7.6831°E)
Time: 00:03:59
(UTC+00:00)

Daily predictions for brighter satellites

Satellite Brightness Start Highest point End
(mag) Time Altitude Azimuth Time Altitude Azimuth Time Altitude Azimuth
CENTAUR R/B 4.5 02:29:13 28° NNE 02:29:13 28° NNE 02:34:20 10° ENE
Lacrosse 5 rocket 4.0 03:35:14 20° ENE 03:35:14 20° ENE 03:36:42 10° ENE
USA 229 DEB 4.3 03:43:52 46° NNE 03:43:52 46° NNE 03:49:01 10° NE
USA 229 4.3 03:43:58 46° NNE 03:43:58 46° NNE 03:49:07 10° NE
NOSS 3-1 (A) 4.1 03:49:58 49° NNE 03:49:58 49° NNE 03:54:58 10° NE
Cosmos 2369 Rocket 4.4 03:52:45 14° N 03:52:45 14° N 03:53:52 10° NNE
ATLAS 3B R/B 3.9 03:50:54 29° N 03:51:59 30° NNE 03:57:54 10° ENE
NOSS 3-2 (A) 4.5 03:55:56 43° N 03:57:59 53° NE 04:05:55 10° ESE
USA 215 3.3 03:58:06 10° SE 04:03:58 64° S 04:03:58 64° S
Cosmos 2074 Rocket 4.1 04:00:17 10° N 04:06:35 75° E 04:12:48 10° SSE
Cosmos 2082 3.9 04:07:05 66° NE 04:07:12 66° ENE 04:12:52 10° SE
CZ-2C R/B 4.2 04:09:56 10° NNE 04:11:37 22° N 04:11:37 22° N
CENTAUR R/B 3.8 04:16:24 30° NNW 04:19:54 47° NNE 04:28:03 10° ESE
Meteor 2-15 4.3 04:19:45 80° WSW 04:20:01 83° W 04:26:14 10° N
Cosmos 2297 Rocket 3.0 04:23:30 38° S 04:23:30 38° S 04:27:02 10° SSE
Cosmos 1470 4.2 04:20:05 10° SSE 04:23:46 37° E 04:27:28 10° NNE
USA 238 DEB 3.9 04:29:54 39° NNW 04:32:51 73° NE 04:40:14 10° SE
USA 238 3.9 04:30:01 39° NNW 04:32:57 73° NE 04:40:20 10° SE
Cosmos 2227 Rocket 2.7 04:34:29 44° SSW 04:34:29 44° SSW 04:38:34 10° S
ALOS 3.2 04:29:24 10° NNE 04:33:56 48° E 04:38:27 10° S
ADEOS Rocket 4.2 04:32:43 10° SE 04:37:39 36° ENE 04:42:44 10° N
COSMO-SKYMED 1 3.3 04:38:18 10° S 04:41:17 44° S 04:41:17 44° S
Cosmos 2263 Rocket 3.6 04:39:11 16° N 04:43:03 34° NE 04:48:10 10° ESE
SL-4 R/B 2.2 04:51:23 56° ESE 04:51:23 56° ESE 04:54:11 10° ESE
STARLINK-43 3.7 04:54:32 57° SSE 04:54:32 57° SSE 04:58:10 10° ENE
Cosmos 2327 Rocket 4.4 04:49:38 10° NNW 04:55:56 71° W 05:02:06 10° S
Cosmos 1656 3.4 04:55:44 34° SW 04:58:09 77° WNW 05:03:40 10° NNE
Cosmos 2369 4.0 04:52:33 10° SSW 04:58:14 69° ESE 05:03:57 10° NNE
Nadezhda 1 Rocket 3.8 04:57:07 10° S 05:03:13 83° W 05:09:20 10° N
NOSS 3-1 (C) 4.4 05:02:19 30° NW 05:03:42 33° NNW 05:09:59 10° NE
Abrixas rocket 2.9 05:05:22 47° SE 05:05:22 47° SE 05:07:48 10° E
CZ-3 R/B 4.3 04:56:40 12° WSW 05:07:30 21° SSW 05:13:16 10° SSE
Orbus 7S? 3.0 05:07:30 70° NNW 05:07:49 79° NNE 05:12:58 10° ESE
MOS 1-B 4.3 05:02:14 10° NNE 05:08:05 87° ESE 05:13:53 10° SSW
METEOR-M 4.0 05:05:30 10° NNE 05:10:54 88° WNW 05:16:16 10° SSW
Lacrosse 5 rocket 1.8 05:10:54 46° NW 05:11:33 50° NNW 05:15:58 10° ENE
Meteor 1-21 Rocket 4.2 05:05:49 10° NNW 05:11:42 88° WSW 05:17:36 10° S
SWAS 4.4 05:11:35 54° WNW 05:12:12 61° WSW 05:16:24 10° SSE
CZ-4B R/B 3.8 05:06:56 10° NNE 05:12:31 61° ESE 05:17:57 10° S
Cosmos 1758 3.2 05:13:10 10° SSW 05:17:08 61° WNW 05:21:07 10° N
Cosmos 2184 Rocket 4.4 05:14:40 17° NNW 05:18:53 37° W 05:24:31 10° SSW
Cosmos 1602 Rocket 4.1 05:21:44 36° WSW 05:21:44 36° WSW 05:25:09 10° SSW
NOAA 6 4.1 05:18:34 10° NNE 05:23:47 79° ESE 05:28:59 10° SSW
NOSS 3-2 (C) 4.0 05:19:37 20° NW 05:25:06 86° NE 05:33:25 10° SE
Cosmos 1953 2.2 05:21:20 10° S 05:25:23 87° W 05:29:30 10° N
Cosmos 44 Rocket 3.5 05:24:26 36° WNW 05:25:48 48° WSW 05:30:21 10° SSE
Cosmos 1980 Rocket 2.7 05:20:52 10° SSW 05:26:29 63° ESE 05:32:06 10° NE
Cosmos 1703 4.1 05:22:36 10° N 05:26:30 52° ENE 05:30:22 10° SSE
Cosmos 2154 Rocket 4.1 05:20:40 10° NNW 05:26:37 50° W 05:32:32 10° SSW
Meteor 2-17 Rocket 4.4 05:24:09 10° NNW 05:30:10 61° W 05:36:06 10° S
Cosmos 2228 3.6 05:26:08 10° S 05:30:29 62° E 05:34:51 10° NNE
Okean O Rocket 1.6 05:26:02 10° NNE 05:30:32 90° ESE 05:35:00 10° SSW
FENGYUN 3A 3.6 05:25:14 10° N 05:30:35 64° WNW 05:35:55 10° SSW
SJ-12 4.1 05:26:55 10° N 05:30:48 44° WNW 05:34:41 10° SW
NOSS 2-2 (C) 3.7 05:28:00 10° SSW 05:31:35 62° SE 05:35:44 10° NE
Cosmos 1953 Rocket 3.7 05:27:36 10° N 05:32:05 79° ENE 05:36:31 10° SSE
SMAP 4.2 05:31:03 10° NNE 05:35:34 46° E 05:40:02 10° S
Cosmos 1697 Rocket 2.6 05:30:14 10° SW 05:35:50 70° WNW 05:41:29 10° NNE
Cosmos 1758 Rocket 3.6 05:33:36 11° NNW 05:37:38 56° W 05:41:55 10° S
Cosmos 2227 4.2 05:33:47 13° NNW 05:38:55 89° ENE 05:44:34 10° SSE
PSLV R/B 4.5 05:37:40 10° N 05:41:05 30° WNW 05:41:08 30° WNW
NOSS 2-2 (E) 3.2 05:39:28 12° SW 05:42:53 88° NW 05:47:16 10° NE
ATLAS 3B R/B 2.9 05:38:09 15° NW 05:43:49 68° NE 05:50:40 10° SE
USA 215 4.5 05:43:32 10° S 05:48:27 22° SW 05:51:19 17° W
Meteor 2-10 4.2 05:43:01 10° S 05:48:37 83° E 05:54:03 10° NNE
NOSS 3-2 (A) 4.2 05:43:21 17° NW 05:49:11 59° SW 05:57:20 10° SSE
Cosmos 1726 2.0 05:45:49 10° S 05:49:30 84° W 05:53:11 10° N
SJ-7 4.3 05:45:47 10° N 05:49:53 69° WNW 05:54:01 10° SSW
CZ-4B DEB 4.4 05:44:30 10° N 05:49:54 51° WNW 05:55:13 10° SW
Cosmos 1959 Rocket 4.4 05:45:29 10° N 05:51:37 86° W 05:57:45 10° S
NOSS 8 (H) 4.0 05:49:46 13° SW 05:52:24 76° NW 05:55:35 10° NE
CZ-2C R/B 4.2 05:49:40 10° NNW 05:51:00 14° NW 05:51:00 14° NW
Genesis I 3.9 05:49:34 16° NNW 05:52:31 50° NE 05:56:15 10° ESE
NOSS 3 (A) 4.4 05:52:08 18° SW 05:54:01 71° NW 05:57:14 10° NE
STARLINK-60 3.3 05:54:11 26° WNW 05:55:53 59° N 05:59:14 10° E
FALCON 9 DEB 3.4 05:54:43 25° WNW 05:56:33 56° N 06:00:01 10° E
Helios 1A Rocket 2.9 05:53:25 10° N 05:57:29 62° WNW 06:01:33 10° SSW
Cosmos 2278 Rocket 4.4 05:54:37 10° N 05:57:38 14° NNE 06:00:38 10° ENE
Cosmos 2366 rocket 4.0 05:52:40 10° NNW 05:59:02 80° W 06:05:23 10° S
Cosmos 1470 3.9 05:56:46 10° WSW 05:59:57 23° WNW 06:03:10 10° NNW
Cosmos 2058 Rocket 3.3 05:55:59 10° S 06:00:23 73° E 06:04:47 10° NNE
Cosmos 2297 Rocket 4.1 06:05:22 10° WSW 06:05:22 10° WSW 06:05:30 10° WSW
Cosmos 1825 Rocket 4.1 06:00:40 10° NNW 06:04:36 35° W 06:08:32 10° SSW
STARLINK-29 3.4 06:03:50 20° WNW 06:06:04 56° N 06:09:33 10° E
STARLINK-52 3.4 06:03:58 20° WNW 06:06:11 55° N 06:09:39 10° E
Cosmos 2344 3.6 05:59:07 10° WSW 06:06:34 66° NW 06:15:15 10° NE
BREEZE M DEB (TANK) 4.0 06:04:56 10° SW 06:07:41 48° SSE 06:14:19 10° ENE
Cosmos 1328 3.9 06:04:50 10° NNW 06:08:45 52° W 06:12:37 10° S
Cosmos 1624 Rocket 4.2 06:04:02 10° NNW 06:09:18 73° ENE 06:14:30 10° SSE
ALOS 3.2 06:07:18 10° N 06:11:08 26° WNW 06:14:58 10° WSW
CENTAUR R/B 3.2 06:03:35 11° NW 06:11:16 74° SW 06:19:55 10° SSE
Cosmos 2322 Rocket 3.7 06:08:05 10° S 06:13:20 41° ESE 06:18:39 10° NE
Cosmos 2360 4.3 06:08:58 10° SW 06:14:35 56° NW 06:20:16 10° NNE
ATLAS 2AS CENTAUR R/B 3.5 06:09:00 10° SSW 06:16:56 71° SE 06:24:52 10° NE
NOAA 12 4.5 06:12:48 10° NNE 06:18:05 70° ESE 06:23:22 10° S
Elektron 3 4.4 06:15:01 10° SW 06:20:18 84° SE 06:23:23 10° NE
COSMOS 2455 2.8 06:15:41 10° SW 06:21:42 78° NW 06:27:46 10° NE
IRS-1C Rocket 4.1 06:16:53 10° NNE 06:22:12 85° WNW 06:27:28 10° SSW
ADEOS Rocket 3.2 06:18:03 10° SSW 06:23:12 41° W 06:28:29 10° NNW
Cosmos 2056 Rocket 3.6 06:17:52 10° NNW 06:23:20 89° ENE 06:28:46 10° SSE
AQUARIUS 4.1 06:19:01 10° N 06:23:31 71° WNW 06:27:59 10° SSW
Cosmos 2181 Rocket 4.1 06:20:18 10° SSW 06:26:20 53° WNW 06:32:30 10° N
Cosmos 1606 Rocket 4.1 06:22:17 10° SW 06:26:23 36° WNW 06:30:31 10° N
Cosmos 2263 Rocket 2.4 06:21:46 10° NW 06:27:15 54° WSW 06:32:44 10° S
Cosmos 1726 Rocket 4.0 06:25:30 10° SW 06:29:42 40° WNW 06:33:55 10° N
Cosmos 923 Rocket 4.0 06:24:37 10° SSW 06:29:52 71° WNW 06:35:11 10° NNE
SL-4 R/B 3.0 06:26:59 10° W 06:29:57 27° SW 06:32:54 10° SSE
STARLINK-43 3.4 06:28:50 10° W 06:32:31 61° N 06:36:13 10° ENE
Cosmos 2278 4.2 06:29:50 10° WSW 06:35:10 39° NW 06:40:31 10° NNE
STARLINK-48 3.4 06:32:22 10° WSW 06:36:15 86° NNW 06:40:10 10° ENE
Cosmos 1437 3.2 06:34:25 10° N 06:37:27 60° ENE 06:40:26 10° SSE
CZ-4 R/B 2.4 06:34:12 10° NNE 06:38:22 54° E 06:42:30 10° S
YAOGAN 1 4.1 06:34:20 10° NNE 06:38:28 42° E 06:42:34 10° S
Abrixas rocket 3.1 06:37:31 10° W 06:40:20 36° SSW 06:43:10 10° SE
STARLINK-80 3.4 06:37:25 10° W 06:41:13 71° NNW 06:45:00 10° ENE
CZ-2C R/B 4.0 06:36:54 10° S 06:41:23 49° W 06:45:50 10° NNW
Cosmos 1844 Rocket 3.3 06:36:57 10° NNW 06:42:30 55° NE 06:48:01 10° SE
NOSS 2-2 (D) 3.9 06:40:05 10° WSW 06:43:39 39° NNW 06:47:53 10° NE
Feng Yun 1-1 Rocket 4.4 06:37:53 10° NNE 06:43:47 67° WNW 06:49:37 10° SSW
